Allentown, PA

11:56 PM EDT on May 22, 2017 (GMT -0400)
Lehigh Valley International

Weather History for KABE - December, 2007

Change the Weather History Date:

Monday, December 31, 2007

  Actual Average Record
Temperature  
Mean Temperature 33 °F 29 °F  
Max Temperature 41 °F 37 °F 61 °F (1965)
Min Temperature 25 °F 21 °F -6 °F (1963)
Degree Days  
Heating Degree Days 32 36  
Month to date heating degree days 986 1014  
Since 1 July heating degree days 1976 2195  
Cooling Degree Days 0 0  
Month to date cooling degree days 0 0  
Year to date cooling degree days 958 757  
Moisture  
Dew Point 29 °F    
Average Humidity 76    
Maximum Humidity 92    
Minimum Humidity 59    
Precipitation  
Precipitation 0.17 in 0.09 in 0.98 in (1942)
Month to date precipitation 5.02 3.58  
Year to date precipitation 45.38 45.35  
Snow  
Snow 0.70 in 0.20 in 6.00 in (1898)
Month to date snowfall 6.9 5.2  
Since 1 July snowfall 10.1 5.9  
Snow Depth 1.00 in    
Sea Level Pressure  
Sea Level Pressure 29.94 in    
Wind  
Wind Speed 6 mph (West)    
Max Wind Speed 21 mph    
Max Gust Speed 29 mph    
Visibility 6 miles    
Events Rain , Snow    
T = Trace of Precipitation, MM = Missing Value Source: NWS Daily Summary

Daily Weather History Graph

Daily Weather History Graph

Search for Another Location

Airport or City:

Trip Planner

Search our weather history database for the weather conditions in past years. The results will help you decide how hot, cold, wet, or windy it might be!

Date:

Astronomy

Dec. 31, 2007 Rise Set
Actual Time 7:25 AM EST 4:44 PM EST
Civil Twilight 6:54 AM EST 5:14 PM EST
Nautical Twilight 6:20 AM EST 5:49 PM EST
Astronomical Twilight 5:47 AM EST 6:22 PM EST
Moon 12:10 AM EST (12/31) 11:36 AM EST (12/31)
Length of Visible Light 10h 20m
Length of Day
9h 18m
Waning Gibbous, 46% of the Moon is Illuminated
Dec 31
Waning Gibbous
Jan 8
New
Jan 15
First Quarter
Jan 22
Full
Jan 30
Last Quarter

Hourly Weather History & Observations

Time (EST) Temp. Windchill Dew Point Humidity Pressure Visibility Wind Dir Wind Speed Gust Speed Precip Events Conditions
12:06 AM 33.8 °F 28.6 °F 30.2 °F 87% 29.83 in 2.5 mi NNW 5.8 mph - 0.01 in Rain Light Rain
12:51 AM 34.0 °F 28.0 °F 30.9 °F 89% 29.81 in 2.5 mi ESE 6.9 mph - 0.09 in Snow Light Snow
1:19 AM 33.8 °F - 30.2 °F 87% 29.82 in 1.0 mi Calm Calm - 0.03 in Snow Light Snow
1:37 AM 33.8 °F 30.8 °F 30.2 °F 87% 29.82 in 1.0 mi West 3.5 mph - 0.05 in Snow Light Snow
1:51 AM 33.1 °F - 30.0 °F 89% 29.83 in 0.8 mi Calm Calm - 0.06 in Snow Light Snow
2:01 AM 33.8 °F - 30.2 °F 87% 29.81 in 0.8 mi Calm Calm - 0.01 in Snow Light Snow
2:18 AM 33.8 °F 30.8 °F 30.2 °F 87% 29.82 in 1.2 mi WNW 3.5 mph - 0.01 in Snow Light Snow
2:51 AM 33.1 °F - 30.0 °F 89% 29.82 in 1.2 mi Calm Calm - 0.02 in Snow Light Snow
3:01 AM 33.8 °F - 30.2 °F 87% 29.82 in 2.5 mi Calm Calm - 0.01 in Snow Light Snow
3:19 AM 33.8 °F - 30.2 °F 87% 29.82 in 2.5 mi Calm Calm - 0.01 in Snow Light Snow
3:36 AM 33.8 °F - 30.2 °F 87% 29.81 in 2.0 mi Calm Calm - 0.01 in Snow Light Snow
3:51 AM 33.1 °F - 30.0 °F 89% 29.82 in 2.0 mi Calm Calm - 0.01 in Snow Light Snow
4:34 AM 33.8 °F 29.6 °F 30.2 °F 87% 29.82 in 8.0 mi WSW 4.6 mph - 0.00 in   Overcast
4:51 AM 33.1 °F 27.7 °F 30.0 °F 89% 29.83 in 8.0 mi SW 5.8 mph - 0.00 in   Mostly Cloudy
5:03 AM 33.8 °F 28.6 °F 30.2 °F 87% 29.83 in 8.0 mi SW 5.8 mph - N/A   Scattered Clouds
5:21 AM 33.8 °F 27.7 °F 30.2 °F 87% 29.84 in 10.0 mi WSW 6.9 mph - N/A   Scattered Clouds
5:51 AM 32.0 °F - 28.9 °F 88% 29.85 in 10.0 mi North - - N/A   Partly Cloudy
6:51 AM 30.9 °F - 28.0 °F 89% 29.87 in 5.0 mi North - - N/A   Clear
7:51 AM 32.0 °F - 28.9 °F 88% 29.91 in 3.0 mi North - - N/A   Partly Cloudy
8:04 AM 32.0 °F - 28.4 °F 87% 29.90 in 3.0 mi North - - N/A   Mostly Cloudy
8:14 AM 32.0 °F - 28.4 °F 87% 29.91 in 3.0 mi North - - N/A   Scattered Clouds
8:51 AM 33.1 °F 24.9 °F 30.0 °F 89% 29.95 in 4.0 mi SW 10.4 mph - N/A   Scattered Clouds
9:51 AM 35.1 °F 27.9 °F 30.9 °F 85% 29.98 in 8.0 mi West 9.2 mph - N/A   Clear
10:51 AM 37.0 °F 29.8 °F 30.9 °F 79% 29.99 in 10.0 mi West 10.4 mph - N/A   Clear
11:51 AM 39.0 °F 31.0 °F 30.0 °F 70% 30.00 in 10.0 mi WNW 13.8 mph 20.7 mph N/A   Clear
12:51 PM 41.0 °F 32.5 °F 28.9 °F 62% 30.01 in 10.0 mi WNW 17.3 mph 21.9 mph N/A   Scattered Clouds
1:51 PM 39.0 °F 31.4 °F 27.0 °F 62% 30.03 in 10.0 mi West 12.7 mph - N/A   Clear
2:51 PM 39.9 °F 32.5 °F 28.0 °F 63% 30.04 in 10.0 mi West 12.7 mph - N/A   Partly Cloudy
3:51 PM 39.9 °F 32.5 °F 28.0 °F 63% 30.08 in 10.0 mi West 12.7 mph - N/A   Clear
4:51 PM 37.0 °F 34.5 °F 27.0 °F 67% 30.10 in 10.0 mi West 3.5 mph - N/A   Clear
5:51 PM 37.0 °F 33.3 °F 27.0 °F 67% 30.12 in 10.0 mi WSW 4.6 mph - N/A   Clear
6:51 PM 32.0 °F - 25.0 °F 75% 30.13 in 10.0 mi Calm Calm - N/A   Clear
7:51 PM 28.9 °F 25.2 °F 24.1 °F 82% 30.12 in 8.0 mi NE 3.5 mph - N/A   Clear
8:51 PM 30.0 °F - 24.1 °F 79% 30.11 in 7.0 mi Calm Calm - N/A   Clear
9:51 PM 27.0 °F - 23.0 °F 85% 30.12 in 7.0 mi Calm Calm - N/A   Clear
10:51 PM 28.9 °F 25.2 °F 24.1 °F 82% 30.12 in 6.0 mi NNE 3.5 mph - N/A   Haze
11:51 PM 26.1 °F 20.5 °F 23.0 °F 88% 30.13 in 7.0 mi NE 4.6 mph - N/A   Clear